This is the latest recevied weather packets stored in our database for station/object YO6IKB-10. If no packets are shown the sender has not sent any weather packets the latest 10 day(s).
| Time | Temp. | Humidity | Pressure | Rain* | Wind** | Luminosity | Snow |
|---|---|---|---|---|---|---|---|
| 1777464564 | 15° C | 47% | 1013.7 hPa | 0 mm | - | - | - |
| 1777463964 | 14.44° C | 48% | 1013.7 hPa | 0 mm | - | - | - |
| 1777463664 | 13.89° C | 48% | 1013.8 hPa | 0 mm | - | - | - |
| 1777462763 | 14.44° C | 49% | 1013.9 hPa | 0 mm | - | - | - |
| 1777462462 | 14.44° C | 48% | 1013.9 hPa | 0 mm | - | - | - |
| 1777462162 | 13.89° C | 48% | 1013.9 hPa | 0 mm | - | - | - |
| 1777461862 | 14.44° C | 47% | 1014 hPa | 0 mm | - | - | - |
| 1777461561 | 14.44° C | 48% | 1014 hPa | 0 mm | - | - | - |
| 1777461261 | 15° C | 48% | 1014.1 hPa | 0 mm | - | - | - |
| 1777460961 | 14.44° C | 48% | 1014.1 hPa | 0 mm | - | - | - |
| 1777460661 | 14.44° C | 48% | 1014 hPa | 0 mm | - | - | - |
| 1777460360 | 14.44° C | 49% | 1014.1 hPa | 0 mm | - | - | - |
| 1777460060 | 13.89° C | 48% | 1014.2 hPa | 0 mm | - | - | - |
| 1777459159 | 13.89° C | 49% | 1014.4 hPa | 0 mm | - | - | - |
| 1777458859 | 13.33° C | 49% | 1014.4 hPa | 0 mm | - | - | - |
| 1777458559 | 13.89° C | 48% | 1014.4 hPa | 0 mm | - | - | - |
| 1777457958 | 13.89° C | 48% | 1014.6 hPa | 0 mm | - | - | - |
| 1777457658 | 14.44° C | 47% | 1014.5 hPa | 0 mm | - | - | - |
| 1777457357 | 14.44° C | 48% | 1014.6 hPa | 0 mm | - | - | - |
| 1777457057 | 14.44° C | 48% | 1014.6 hPa | 0 mm | - | - | - |
| 1777456757 | 13.89° C | 48% | 1014.7 hPa | 0 mm | - | - | - |
| 1777455556 | 13.89° C | 50% | 1014.6 hPa | 0 mm | - | - | - |
| 1777455255 | 13.33° C | 50% | 1014.7 hPa | 0 mm | - | - | - |
| 1777454955 | 13.33° C | 51% | 1014.7 hPa | 0 mm | - | - | - |
| 1777454655 | 12.78° C | 50% | 1014.8 hPa | 0 mm | - | - | - |
* Rain latest hour (hover to see other rain measurements)
** Current wind speed in m/s (hover to see current wind gust speed)